sat.trackr.live / text

‹ back to catalog

EUTELSAT 117 WEST A

NORAD 39122 · 2013-012A

PAYLOAD ACTIVE UNKNOWN

§ Identity

Operator
Country
EUTE
Launch date
2013-03-26
Launch site
TYMSC
Launch vehicle
Mass (kg)
RCS (m²)
423.23

Purposes: comms

External: N2YO · Heavens-Above · Gunter

§ Orbital elements

Epoch: 2026-09-20T03:52:17.012064Z

Period
1,436.10 min
Inclination
0.0124°
Eccentricity
0.0002892
Mean motion
1.00271774 rev/d
Perigee alt
35,774.4 km
Apogee alt
35,798.8 km
Semi-major
42,164.7 km
B*
0.0000e+0
RAAN
256.2087°
Arg perigee
278.4174°
Mean anomaly
125.7147°
Rev number
4,938

§ Raw data

EUTELSAT 117 WEST A1 39122U 13012A   26263.16130801 -.00000017  00000+0  00000+0 0  99902 39122   0.0124 256.2087 0002892 278.4174 125.7147  1.00271774 49380

JSON: /api/v1/satellites/39122 · /tle

For live sub-satellite position, see the globe view (requires WebGL).

§ Visibility from observer

Set your observer location to see the next 7 days of passes ≥ 10°. The values pass through the URL so the page stays shareable.

No JS? Fill the form by hand. The geolocation button needs JavaScript.